Tracking 31027 objects as of 19-Jul-2025
HD Live streaming from Space Station
objects crossing your sky now

COSMOS 2286

Track COSMOS 2286 now!
COSMOS 2286 is classified as:


NORAD ID: 23194
Int'l Code: 1994-048A
Perigee: 5,293.0 km
Apogee: 35,128.6 km
Inclination: 66.8 °
Period: 718.8 minutes
Semi major axis: 26581 km
RCS: 14.1879 m2 (large)
Launch date: August 5, 1994
Source: Commonwealth of Independent States (former USSR) (CIS)
Launch site: PLESETSK MISSILE AND SPACE COMPLEX (PKMTR)
Your satellite tracking list
Your tracking list is empty




NASA's NSSDC Master Catalog

Two Line Element Set (TLE):
1 23194U 94048A   25195.41972160  .00000563  00000-0  00000+0 0  9999
2 23194  66.8044 170.2015 5612028 126.7654 298.9699  2.00320871226689
Source of the keplerian elements: AFSPC